Location: Palomar Mountain Lodge
(33.3110°N, 116.8495°W)
Time: 03:35:03
(UTC-07:00)

Cosmos 1680 Rocket - Pass Details

Date: 14 June 2018
Orbit: 759 x 782 km, 74.1° (Epoch: 17 August)

Event Time Altitude Azimuth Distance (km) Brightness Sun altitude
Rises 20:44:54 0° 205° (SSW) 3,199 6.6 -9.1°
Reaches altitude 10° 20:47:17 10° 209° (SSW) 2,278 5.9 -9.5°
Maximum altitude 20:52:22 59° 289° (WNW) 877 4.2 -10.3°
Drops below altitude 10° 20:57:31 10° 8° (N) 2,299 6.4 -11.2°
Sets 20:59:56 0° 13° (NNE) 3,231 7.1 -11.6°
